ORBCOMM FM 14

Satellite information

Favourite Embed

Satellite Type and Status

PAYLOADIN ORBIT

Key statistics

Satellite ORBCOMM FM 14 at a glance.

Uptime

9897

Days in orbit

Revolutions

≈ 14.4

Per day

Orbit

LEO

Low Earth Orbit

Inclination

45.0

Latest

Satellite identification and parameters

Extended collection of information and parameters for ORBCOMM FM 14.

Object identification

Identified? True

Debris? False

Object name: ORBCOMM FM 14

International designator: 1998-046G

Object number (NORAD): 25419

Object ID (CCSDS): 25419

Country: ORBITAL TELECOMMUNICATIONS SATELLITE (GLOBALSTAR) (ORB)

Current information (Y/N): Y

RCS size: MEDIUM

Orbital parameters

Period: 100.062 minutes

Inclination: 44.9946 deg

SMA: 7139.562 km

Apoapsis: 764.683 km

Periapsis: 758.172 km

RAAN: 161.0387 deg

Eccentricy: 0.00045598

Argument of periapsis: 336.1557 deg

Mean anomaly: 23.9079 deg

Mean motion: 14.3911457 rev/day

Mean motion (dot): 0.00002243 rev/day2

B* drag term: 0.00076392794 1/REarth

Two-line elements (TLE)

Creation date: Sept. 4, 2025, 10:13 a.m.

Reference frame: TEME

Reference center: EARTH

Epoch: Sept. 4, 2025, 4:24 a.m. UTC

TLE line 0: 0 ORBCOMM FM 14

TLE line 1: 1 25419U 98046G 25247.18359776 .00002243 00000-0 76393-3 0 9996

TLE line 2: 2 25419 44.9946 161.0387 0004560 336.1557 23.9079 14.39114570415599

Live tracking on map

Real-time ground track for satellite ORBCOMM FM 14.

In-orbit conjunctions

There are no conjunctions computed for ORBCOMM FM 14, at the moment. Check back to stay up to date, as we update our databases every day.

Go to all conjunctions

Associated space launch

ORBCOMM FM 14 was lifted into orbit during the mission ‘Pegasus XL HAPS | Orbcomm-B1 - B8’, on board a Pegasus XL HAPS space rocket.

The launch took place on Aug. 2, 1998, 4:24 p.m. from Wallops Flight Facility.

For more information about the launch, click the button.

Launch to space Pegasus XL HAPS | Orbcomm-B1 - B8
Pegasus XL HAPS | Orbcomm-B1 - B8

Agency: N/A

Status: Launch Successful

Launch date: Aug. 2, 1998, 4:24 p.m. UTC

Rocket: Pegasus XL HAPS

Launch pad: Wallops Flight Facility

Location: Air launch to orbit

...

Latest news about this satellite

There are no fresh news available about this satellite. Check back as we update our databases every day.


Newsletter sign-up

Weekly statistics, charts and insights to help you stay on top of the space industry.